Regional Weather Roundup
Issued by NWS Little Rock, AR

Home | Current Version | Previous Version | Graphics & Text | Print | Product List | Glossary On
Versions: 1 2 3 4 5 6 7 8 9 10 11 12 13 14 15 16 17 18 19 20 21 22 23 24 25 26 27 28
000
ASUS44 KLZK 052205
RWRLZK

WEATHER ROUNDUP FOR ARKANSAS
NATIONAL WEATHER SERVICE LITTLE ROCK AR
500 PM CDT THU MAY 05 2016

NOTE: "FAIR" INDICATES FEW OR NO CLOUDS BELOW 12,000 FEET WITH NO
SIGNIFICANT WEATHER AND/OR OBSTRUCTIONS TO VISIBILITY.

ARZ001-003-010-029-052300-
NORTHWEST ARKANSAS

CITY           SKY/WX    TMP DP  RH WIND       PRES   REMARKS
FAYETTEVILLE   SUNNY     72  46  39 NW15G23   30.02F
FORT SMITH     SUNNY     78  40  25 N13       29.99F
HARRISON       SUNNY     71  37  28 NW10      30.01S
BENTONVILLE    SUNNY     72  39  30 N9        30.04S
ROGERS         SUNNY     71  43  36 N9G17     30.04S
SILOAM SPGS    SUNNY     72  45  37 N14       30.04S
HIGHFILL       SUNNY     75  44  33 N14       30.02F
SPRINGDALE     SUNNY     72  41  33 N12G20    30.04F
$$

ARZ004-005-016-052300-
NORTH CENTRAL ARKANSAS

CITY           SKY/WX    TMP DP  RH WIND       PRES   REMARKS
BATESVILLE     SUNNY     73  34  23 NW8G17    29.96F
FLIPPIN        SUNNY    N/A N/A N/A N13G20    29.97S
MTN HOME       SUNNY     72  31  22 VRB7      29.99S
$$

ARZ040-041-052300-
WEST CENTRAL ARKANSAS

CITY           SKY/WX    TMP DP  RH WIND       PRES   REMARKS
MENA           SUNNY     77  46  33 NW8       30.01S
MOUNT IDA      SUNNY     77  44  30 VRB6      29.96F
$$

ARZ009-017-025-026-028-052300-
NORTHEAST ARKANSAS

CITY           SKY/WX    TMP DP  RH WIND       PRES   REMARKS
CORNING          N/A     72  36  26 N14G20    29.96S
JONESBORO      SUNNY     72  34  24 N12G20    29.95S
NEWPORT        SUNNY     73  32  22 N9        29.96F
WALNUT RIDGE   SUNNY     73  34  23 N14G20    29.95S
BLYTHEVILLE    MOSUNNY   70  42  36 N23G30    29.96S
NW BLYTHEVILLE MOSUNNY   70  41  35 N9G23     29.95S
$$

ARZ022-023-033-042-044-052300-
CENTRAL ARKANSAS

CITY           SKY/WX    TMP DP  RH WIND       PRES   REMARKS
LITTLE ROCK    MOSUNNY   79  38  22 NW15G25   29.94F
N LITTLE ROCK    N/A     75  41  30 N9G18     29.94F
JACKSONVILLE   SUNNY     76  43  30 VRB7      29.94F
SEARCY         SUNNY     74  40  29 N9        29.96F
HOT SPRINGS    SUNNY     77  42  28 N8        29.97F
RUSSELLVILLE   SUNNY     78  38  23 N12G18    29.95F
CLINTON        FAIR      75  39  27 NW8G17    29.97S
$$

ARZ036-052300-
EAST ARKANSAS

CITY           SKY/WX    TMP DP  RH WIND       PRES   REMARKS
WEST MEMPHIS   SUNNY     71  37  28 N13       29.93F
$$

ARZ050-053-066-070-073-052300-
SOUTHWEST ARKANSAS

CITY           SKY/WX    TMP DP  RH WIND       PRES   REMARKS
ARKADELPHIA    FAIR      77  46  33 NW6       29.97F
CAMDEN         SUNNY     77  39  25 NW7       29.96F
TEXARKANA      SUNNY     79  45  29 NW8       29.97F
EL DORADO      SUNNY     77  42  28 N10G21    29.96F
DE QUEEN       SUNNY     78  46  32 N9        29.96F
$$

ARZ056-057-069-052300-
SOUTHEAST ARKANSAS

CITY           SKY/WX    TMP DP  RH WIND       PRES   REMARKS
PINE BLUFF     SUNNY     75  43  31 NW8       29.95F
STUTTGART      SUNNY     73  43  33 N14       29.95S
MONTICELLO     SUNNY     78  41  26 VRB7      29.94F

$$






USA.gov is the U.S. government's official web portal to all federal, state and local government web resources and services.